Location: Haliburton Scout Reserve
(45.0900°N, 78.3200°W)
Time: 07:26:13
(UTC-04:00)

S-56A Canister/Altair - Pass Details

Date: 02 February 2023
Orbit: 639 x 2493 km, 38.9° (Epoch: 27 March)

Event Time Altitude Azimuth Distance (km) Brightness Sun altitude
Rises 15:13:52 0° 269° (W) 3,385 11.5 17.5°
Reaches altitude 10° 15:16:09 10° 262° (W) 2,615 11.2 17.3°
Maximum altitude 15:22:01 43° 193° (SSW) 1,606 10.2 16.6°
Drops below altitude 10° 15:30:36 10° 126° (SE) 3,810 11.0 15.5°
Sets 15:34:36 0° 121° (ESE) 5,109 11.6 15.0°
